Home   Weather   Lisbon   Past weeks
Flag for Portugal

Past Weather in Lisbon, Portugal — Yesterday and Last 2 Weeks

Now
54 °F

Clear.


Feels Like: 49 °F
Forecast: 63 / 53 °F
Wind: 17 mph from North

Location: Lisbon Portela Airport

Current Time: Nov 12, 2019 at 4:29:24 am

Latest Report: Nov 12, 2019 at 3:30 am


Visibility: 10 mi

Pressure: 30.12 "Hg

Humidity: 82%

Dew Point: 48 °F

Location of LisbonLocation

Past Weather in Lisbon — Graph

°F

Lisbon Temperature Yesterday

Maximum temperature yesterday: 64 °F (at 11:00 am)
Minimum temperature yesterday: 55 °F (at 7:30 pm)
Average temperature yesterday: 60 °F

High & Low Weather Summary for the Past Weeks

 TemperatureHumidityPressure
High73 °F (Nov 1, 1:00 pm)100% (Oct 28, 3:00 am)30.33 "Hg (Oct 28, 3:00 am)
Low50 °F (Nov 8, 5:00 am)49% (Nov 7, 1:00 pm)29.89 "Hg (Nov 3, 1:30 am)
Average62 °F86%30.12 "Hg
* Reported Oct 28 3:00 am — Nov 12 3:30 am, Lisbon. Weather by CustomWeather, © 2019

Note: Actual official high and low records may vary slightly from our data, if they occured in-between our weather recording intervals... More about our weather records

Advertising

Lisbon Weather History for the Previous 24 Hours

Scroll right to see more
 ConditionsComfort  
Time TempWeatherWind HumidityBarometerVisibility
3:30 am
Tue, Nov 12
54 °FClear.17 mph82%30.12 "Hg10 mi
3:00 am54 °FClear.17 mph82%30.12 "Hg10 mi
2:30 am55 °FClear.18 mph77%30.12 "Hg10 mi
2:00 am55 °FClear.20 mph77%30.12 "Hg10 mi
1:30 am55 °FClear.20 mph77%30.12 "Hg10 mi
1:00 am55 °FClear.20 mph77%30.12 "Hg10 mi
12:30 am55 °FClear.20 mph77%30.12 "Hg10 mi
12:00 am55 °FClear.18 mph82%30.12 "Hg10 mi
11:30 pm
Mon, Nov 11
55 °FClear.21 mph82%30.15 "Hg10 mi
11:00 pm55 °FClear.20 mph82%30.15 "Hg10 mi
10:30 pm55 °FClear.21 mph82%30.12 "Hg10 mi
10:00 pm55 °FPassing clouds.18 mph77%30.15 "HgN/A
9:30 pm55 °FPassing clouds.18 mph77%30.15 "HgN/A
9:00 pm55 °FPassing clouds.16 mph77%30.15 "HgN/A
8:30 pm55 °FPassing clouds.21 mph77%30.12 "HgN/A
8:00 pm55 °FPassing clouds.24 mph77%30.12 "HgN/A
7:30 pm55 °FPassing clouds.24 mph77%30.12 "HgN/A
7:00 pm57 °FPassing clouds.25 mph72%30.12 "HgN/A
6:30 pm57 °FPassing clouds.26 mph77%30.12 "HgN/A
6:00 pm57 °FPassing clouds.21 mph77%30.12 "HgN/A
5:30 pm59 °FPassing clouds.24 mph72%30.12 "HgN/A
5:00 pm59 °FPassing clouds.23 mph77%30.09 "HgN/A
4:30 pm61 °FPassing clouds.21 mph72%30.09 "HgN/A
4:00 pm63 °FPassing clouds.18 mph73%30.09 "HgN/A
3:30 pm63 °FPassing clouds.18 mph73%30.09 "HgN/A
3:00 pm63 °FScattered clouds.21 mph77%30.12 "HgN/A
2:30 pm63 °FScattered clouds.20 mph83%30.12 "HgN/A
2:00 pm64 °FScattered clouds.16 mph78%30.12 "HgN/A
1:30 pm64 °FScattered clouds.20 mph78%30.09 "HgN/A
1:00 pm64 °FScattered clouds.14 mph83%30.12 "HgN/A
12:30 pm64 °FScattered clouds.15 mph83%30.12 "HgN/A
12:00 pm64 °FScattered showers. Scattered clouds.16 mph88%30.12 "HgN/A
11:30 am64 °FPartly sunny.17 mph88%30.15 "HgN/A
11:00 am64 °FScattered clouds.13 mph94%30.15 "HgN/A
10:30 am63 °FScattered showers. Partly sunny.10 mph94%30.15 "HgN/A
10:00 am63 °FScattered showers. Scattered clouds.10 mph94%30.15 "HgN/A
9:30 am61 °FScattered showers. Scattered clouds.8 mph100%30.15 "HgN/A
9:00 am61 °FScattered clouds.8 mph94%30.18 "HgN/A
8:30 am61 °FScattered showers. Passing clouds.9 mph94%30.15 "HgN/A
8:00 am61 °FScattered showers. Scattered clouds.10 mph94%30.15 "HgN/A
7:30 am61 °FPartly sunny.10 mph94%30.15 "Hg5 mi
7:00 am61 °FPassing clouds.3 mph88%30.15 "HgN/A
6:30 am61 °FPassing clouds.7 mph88%30.15 "HgN/A
6:00 am61 °FPassing clouds.10 mph88%30.15 "HgN/A
5:30 am59 °FPassing clouds.9 mph94%30.15 "HgN/A
5:00 am59 °FPassing clouds.13 mph94%30.15 "HgN/A
4:30 am59 °FPassing clouds.15 mph94%30.15 "HgN/A
4:00 am61 °FPartly cloudy.7 mph94%30.15 "Hg4 mi
Weather by CustomWeather, © 2019

See weather overview